TimeEST,TemperatureF,Dew PointF,Humidity,Sea Level PressureIn,VisibilityMPH,Wind Direction,Wind SpeedMPH,Gust SpeedMPH,PrecipitationIn,Events,Conditions,WindDirDegrees,DateUTC
12:54 AM,43.0,41.0,93,30.28,6.0,North,15.0,20.7,0.08,Rain,Light Rain,360,2013-01-15 05:54:00
1:12 AM,42.8,39.2,87,30.29,4.0,NNW,16.1,25.3,0.03,Rain,Rain,340,2013-01-15 06:12:00
1:54 AM,41.0,39.9,96,30.29,5.0,NNE,8.1,-,0.06,Rain,Light Rain,30,2013-01-15 06:54:00
2:21 AM,41.0,39.2,93,30.26,9.0,NE,6.9,-,0.01,Rain,Light Rain,40,2013-01-15 07:21:00
2:54 AM,41.0,39.0,93,30.27,10.0,ENE,6.9,-,0.01,,Overcast,60,2013-01-15 07:54:00
3:54 AM,41.0,39.0,93,30.24,3.0,ENE,4.6,-,0.03,Rain,Light Rain,60,2013-01-15 08:54:00
4:11 AM,41.0,39.2,93,30.22,2.5,Calm,Calm,-,0.03,Rain,Rain,0,2013-01-15 09:11:00
4:54 AM,41.0,39.0,93,30.23,2.5,North,3.5,-,0.13,Rain,Rain,360,2013-01-15 09:54:00
5:54 AM,41.0,39.9,96,30.22,10.0,North,8.1,-,0.03,,Overcast,360,2013-01-15 10:54:00
6:54 AM,41.0,39.9,96,30.26,10.0,North,8.1,-,0.00,,Overcast,350,2013-01-15 11:54:00
7:54 AM,41.0,39.9,96,30.26,2.5,NNE,8.1,-,0.03,Rain,Light Rain,20,2013-01-15 12:54:00
8:54 AM,41.0,39.9,96,30.30,2.5,North,10.4,-,0.04,Rain,Rain,10,2013-01-15 13:54:00
9:54 AM,42.1,39.9,92,30.32,3.0,North,10.4,-,0.11,Rain,Light Rain,360,2013-01-15 14:54:00
10:54 AM,42.1,39.9,92,30.31,3.0,North,8.1,-,0.06,Rain,Light Rain,10,2013-01-15 15:54:00
11:54 AM,43.0,41.0,93,30.29,6.0,NNE,6.9,-,0.04,Rain,Light Rain,20,2013-01-15 16:54:00
12:54 PM,43.0,41.0,93,30.27,10.0,NNE,10.4,-,0.01,Rain,Light Rain,20,2013-01-15 17:54:00
1:54 PM,43.0,41.0,93,30.25,10.0,NNE,8.1,-,0.02,Rain,Light Rain,30,2013-01-15 18:54:00
2:54 PM,43.0,41.0,93,30.24,10.0,NE,5.8,-,0.00,Rain,Light Rain,50,2013-01-15 19:54:00
3:54 PM,42.8,41.0,93,30.23,7.0,NNE,5.8,-,N/A,Rain,Light Rain,30,2013-01-15 20:54:00
4:54 PM,43.0,41.0,93,30.25,10.0,NE,6.9,-,0.01,,Overcast,50,2013-01-15 21:54:00
5:54 PM,42.1,41.0,96,30.24,9.0,ENE,8.1,-,0.05,Rain,Light Rain,70,2013-01-15 22:54:00
6:32 PM,42.8,39.2,87,30.22,10.0,ENE,6.9,-,0.03,Rain,Light Rain,60,2013-01-15 23:32:00
6:54 PM,42.1,39.9,92,30.23,9.0,ENE,6.9,-,0.03,Rain,Light Rain,60,2013-01-15 23:54:00
7:09 PM,42.8,39.2,87,30.21,9.0,ENE,5.8,-,0.01,Rain,Light Rain,70,2013-01-16 00:09:00
7:54 PM,42.1,39.9,92,30.22,8.0,ENE,4.6,-,0.03,Rain,Light Rain,70,2013-01-16 00:54:00
8:54 PM,42.1,39.9,92,30.21,10.0,NE,5.8,-,0.07,Rain,Light Rain,40,2013-01-16 01:54:00
9:54 PM,41.0,39.9,96,30.18,5.0,NE,8.1,-,0.04,Rain,Light Rain,40,2013-01-16 02:54:00
10:54 PM,41.0,39.0,93,30.15,4.0,ENE,5.8,-,0.00,Rain,Light Rain,60,2013-01-16 03:54:00
11:54 PM,41.0,39.0,93,30.13,4.0,NE,6.9,-,0.05,Rain,Light Rain,40,2013-01-16 04:54:00